CAPE
0 11 0 0 15 49 48 0 0 0 0 0 8 0 0 0 0 0 4 0 0 0 0 0 1 0 4 20 0 0 0 0 0 0 0 0 0 0 0 28 0 0 0 0 1
0 0 25 13 0 12 61 56 27 0 0 0 19 0 0 0 0 0 1 1 0 0 0 22 19 41 30 12 0 0 0 0 0 0 0 0 0 0 0 7 0 0 0 2 1
0 0 1 31 18 0 9 62 52 59 0 1 17 5 0 0 0 0 0 0 0 0 0 0 1 73 69 32 0 0 0 0 0 0 0 0 0 0 0 0 0 0 0 0 0
12 0 0 0 24 1 0 8 49 59 11 0 32 23 0 0 2 0 0 1 0 0 0 0 0 57 64 10 0 0 0 0 0 0 0 0 0 0 0 0 0 0 0 1 3
43 3 0 0 29 27 0 0 5 39 77 0 46 32 7 0 0 0 0 0 0 0 0 0 3 22 8 4 17 0 0 0 0 0 0 0 0 0 0 0 0 2 18 2 4
53 26 17 0 20 36 9 0 0 13 58 0 32 38 19 1 0 1 0 0 0 0 0 0 3 1 24 31 22 0 0 0 0 0 0 0 0 0 0 0 28 35 60 42 9
67 38 19 0 22 51 32 0 0 6 58 16 20 61 33 0 0 9 0 0 0 0 0 0 0 20 4 20 0 0 0 0 0 0 0 0 0 0 0 17 41 72 91 71 77
80 54 65 43 46 55 65 23 0 19 71 19 62 83 1 1 22 10 14 3 0 0 0 0 0 0 0 0 0 0 0 27 1 0 0 0 0 0 0 10 66 116 110 77 92
115 86 61 43 46 65 88 44 23 90 77 84 81 82 0 15 42 34 13 5 0 0 0 0 0 2 0 16 4 1 10 2 6 0 0 0 0 0 0 0 66 128 140 114 114
161 128 87 73 94 125 80 61 106 74 75 85 70 49 0 13 35 40 24 4 8 14 1 6 0 11 12 78 37 2 3 1 6 0 0 0 0 0 0 0 55 114 152 151 144
115 77 116 163 106 122 75 116 50 30 95 0 0 0 21 3 9 46 57 35 4 14 53 25 36 4 13 39 0 2 8 0 0 0 0 0 0 0 0 0 0 107 141 178 192
68 97 169 197 179 183 84 57 1 4 0 3 26 33 7 26 13 26 75 68 39 36 61 51 29 0 18 7 8 0 14 8 0 0 0 0 0 0 0 0 0 0 91 190 192
87 143 208 177 137 22 1 38 27 26 65 2 14 53 12 40 31 5 62 50 36 37 38 29 1 0 1 2 39 16 13 1 8 0 0 0 0 0 0 0 0 0 0 79 182
107 166 226 191 1 0 0 0 62 12 22 0 1 0 62 55 18 2 58 56 67 10 7 11 11 11 10 1 7 17 4 14 0 1 8 0 17 0 0 0 0 0 0 0 0
173 231 205 7 0 0 0 9 57 2 0 0 7 15 44 44 36 28 58 58 50 5 6 0 4 4 26 1 13 16 2 5 3 0 0 0 2 0 0 0 0 0 0 0 0
177 230 15 4 1 0 8 18 6 56 0 5 25 23 39 26 23 53 42 60 10 34 25 0 0 0 33 37 46 0 0 0 0 1 2 1 0 0 0 0 0 0 0 0 0
170 49 0 0 43 0 0 119 171 26 0 8 37 17 6 13 12 32 16 16 20 16 16 30 41 0 14 49 8 37 19 12 24 8 1 0 2 3 0 0 0 0 0 0 0
0 0 0 0 0 0 79 237 3 0 0 0 10 14 22 14 16 28 36 4 2 13 10 25 35 35 37 46 24 5 6 4 21 9 0 0 1 0 0 0 0 0 0 0 0
0 0 0 0 0 0 33 45 0 0 0 0 6 25 36 36 28 35 15 13 8 0 9 40 8 0 0 0 26 40 12 0 0 0 0 0 0 0 0 0 0 0 0 0 0
0 0 0 0 0 0 13 8 0 1 1 2 3 1 4 14 22 47 20 4 10 8 0 1 11 1 1 1 0 16 0 3 4 3 0 0 0 0 0 0 0 0 0 2 3
0 0 0 0 0 0 4 3 3 11 19 30 2 3 1 2 12 8 15 3 2 3 1 0 0 9 2 12 4 2 2 1 0 0 0 0 0 0 0 0 0 0 2 5 3
0 7 0 0 21 3 1 1 2 4 6 6 17 11 6 2 20 32 31 3 0 7 3 1 6 10 1 3 2 0 4 0 22 1 0 0 0 0 0 0 0 1 3 0 0
0 0 0 0 10 1 0 0 0 0 1 4 6 21 9 3 33 22 1 0 0 16 6 1 7 6 5 2 3 4 1 0 0 0 0 0 0 0 0 0 2 1 0 0 0
0 0 0 0 0 0 0 0 0 0 0 2 1 3 13 9 6 8 1 2 0 14 4 0 2 0 1 0 0 4 4 0 0 0 0 0 0 0 0 4 1 0 0 0 0
0 0 0 0 0 0 0 0 0 0 0 0 2 0 0 3 4 9 6 3 2 6 2 2 1 0 0 0 0 0 1 2 5 0 0 0 0 0 0 0 0 0 0 0 0
0 0 1 1 0 0 0 0 0 0 0 0 0 2 1 3 2 0 6 3 1 0 1 0 3 0 0 0 0 0 0 4 2 0 0 0 0 0 0 0 0 0 0 0 0
0 0 0 0 0 0 0 0 0 0 0 0 2 3 2 4 11 8 8 4 2 0 2 0 0 0 0 0 0 0 0 0 0 0 0 0 0 0 0 0 0 0 0 0 0
CIN
-0 -0 -0 -0 -2 -0 -0 -0 -0 -0 -0 -0 -4 -0 -0 -0 -0 -0 -31 -21 -0 -0 -0 -0 -25 -9 -15 -55 -0 -0 -0 -0 -0 -0 -0 -0 -0 -0 -0 -85 -0 -0 -0 -0 -0
-0 -0 -0 -1 -0 -7 -0 -0 -0 -0 -0 -0 -0 -0 -0 -0 -0 -0 -0 -46 -0 -0 -0 -113 -47 -67 -7 -22 -0 -0 -0 -0 -0 -0 -0 -0 -0 -0 -0 -40 -0 -0 -0 -0 -0
-0 -0 -0 -1 -0 -0 -8 -0 -0 -0 -0 -0 -2 -0 -0 -0 -0 -0 -0 -0 -0 -0 -0 -0 -41 -46 -7 -10 -0 -0 -0 -0 -0 -0 -0 -0 -0 -0 -0 -0 -0 -0 -0 -0 -0
-0 -0 -0 -0 -2 -0 -0 -16 -0 -0 -0 -0 -3 -4 -0 -0 -0 -0 -0 -0 -33 -0 -0 -0 -1 -42 -22 -12 -1 -0 -0 -0 -0 -0 -0 -0 -0 -0 -0 -0 -0 -0 -0 -0 -0
-1 -0 -0 -0 -1 -2 -0 -0 -9 -1 -0 -0 -4 -20 -21 -0 -0 -0 -0 -0 -0 -0 -0 -0 -19 -21 -19 -37 -59 -0 -0 -0 -0 -0 -0 -0 -0 -0 -0 -0 -0 -95 -258 -0 -0
-1 -3 -2 -0 -0 -2 -13 -0 -0 -10 -1 -0 -7 -19 -7 -1 -0 -32 -0 -0 -0 -0 -0 -17 -60 -58 -63 -91 -48 -2 -0 -0 -0 -0 -0 -0 -0 -0 -0 -0 -215 -234 -202 -210 -140
-1 -4 -6 -0 -1 -3 -6 -0 -0 -5 -0 -18 -12 -5 -2 -0 -0 -26 -0 -0 -0 -0 -0 -0 -0 -44 -54 -53 -0 -0 -0 -0 -0 -0 -0 -0 -0 -0 -0 -224 -158 -179 -185 -175 -146
-0 -3 -2 -4 -3 -1 -3 -5 -0 -9 -0 -21 -9 -1 -0 -6 -31 -21 -61 -75 -0 -0 -0 -0 -0 -0 -0 -0 -0 -0 -0 -0 -0 -0 -0 -0 -0 -0 -0 -152 -105 -140 -162 -176 -129
-1 -4 -4 -7 -8 -5 -1 -4 -12 -1 -1 -2 -3 -0 -0 -28 -6 -20 -37 -44 -0 -11 -0 -0 -0 -7 -0 -7 -6 -0 -0 -0 -0 -0 -0 -0 -0 -0 -0 -0 -93 -116 -136 -143 -110
-1 -2 -2 -5 -8 -4 -5 -7 -3 -10 -8 -7 -4 -0 -0 -1 -4 -9 -27 -22 -8 -29 -4 -35 -0 -5 -5 -0 -0 -0 -0 -0 -0 -0 -0 -0 -0 -0 -0 -0 -89 -104 -119 -124 -100
-3 -3 -3 -2 -6 -5 -16 -5 -2 -4 -1 -0 -0 -0 -12 -18 -7 -5 -16 -9 -34 -5 -0 -27 -1 -0 -1 -2 -0 -16 -8 -0 -0 -0 -0 -0 -0 -0 -0 -0 -0 -77 -99 -104 -71
-4 -3 -1 -1 -2 -1 -11 -2 -4 -3 -0 -26 -9 -10 -20 -17 -6 -8 -19 -0 -1 -0 -0 -3 -4 -1 -20 -17 -18 -0 -5 -1 -0 -0 -0 -0 -0 -0 -0 -0 -0 -0 -91 -77 -66
-10 -1 -0 -1 -0 -10 -2 -17 -45 -55 -3 -10 -15 -1 -12 -7 -7 -20 -1 -1 -2 -1 -3 -0 -2 -7 -2 -12 -4 -14 -0 -1 -2 -0 -0 -0 -0 -0 -0 -0 -0 -0 -0 -117 -69
-1 -1 -1 -0 -0 -0 -0 -0 -30 -40 -13 -0 -0 -0 -4 -5 -5 -22 -10 -1 -0 -3 -6 -1 -5 -5 -14 -0 -4 -1 -3 -10 -0 -4 -0 -0 -1 -0 -0 -0 -0 -0 -0 -0 -0
-0 -1 -0 -0 -0 -0 -0 -56 -44 -2 -0 -0 -1 -6 -6 -0 -0 -5 -26 -7 -0 -1 -4 -0 -5 -8 -0 -0 -6 -2 -17 -17 -10 -2 -0 -0 -0 -0 -0 -0 -0 -0 -0 -0 -0
-1 -0 -2 -3 -5 -0 -51 -61 -11 -2 -0 -1 -1 -0 -0 -0 -0 -0 -0 -4 -0 -1 -5 -0 -0 -0 -0 -5 -2 -0 -0 -0 -0 -0 -0 -0 -0 -0 -0 -0 -0 -0 -0 -0 -0
-0 -0 -0 -0 -10 -0 -0 -24 -0 -3 -0 -0 -0 -0 -1 -0 -0 -0 -0 -0 -0 -0 -4 -0 -6 -0 -10 -0 -20 -14 -0 -2 -0 -0 -1 -0 -0 -0 -0 -0 -0 -0 -0 -0 -0
-0 -0 -0 -0 -0 -0 -27 -3 -0 -0 -0 -0 -13 -3 -0 -3 -0 -0 -0 -0 -0 -0 -0 -0 -0 -3 -6 -2 -0 -19 -6 -0 -0 -0 -0 -0 -0 -1 -0 -0 -0 -0 -0 -0 -0
-0 -0 -0 -0 -0 -0 -2 -0 -0 -0 -0 -0 -0 -3 -0 -1 -2 -0 -0 -0 -0 -0 -0 -0 -0 -0 -0 -0 -18 -0 -0 -0 -0 -0 -0 -0 -0 -0 -0 -0 -0 -0 -0 -0 -0
-0 -0 -0 -0 -0 -0 -0 -0 -0 -0 -1 -0 -0 -0 -0 -3 -0 -0 -0 -0 -1 -0 -0 -0 -0 -0 -0 -2 -0 -0 -0 -0 -0 -0 -0 -0 -0 -0 -0 -0 -0 -0 -0 -0 -0
-0 -0 -0 -0 -0 -0 -0 -0 -0 -0 -0 -0 -0 -0 -0 -1 -0 -0 -6 -0 -1 -0 -0 -0 -0 -0 -0 -0 -0 -16 -15 -0 -0 -0 -0 -0 -0 -0 -0 -0 -0 -0 -0 -0 -0
-0 -0 -0 -0 -1 -0 -0 -0 -0 -0 -0 -0 -0 -0 -0 -1 -0 -1 -1 -0 -0 -2 -2 -0 -0 -0 -0 -0 -0 -0 -0 -0 -0 -0 -0 -0 -0 -0 -0 -0 -0 -0 -0 -0 -0
-0 -0 -0 -0 -0 -0 -0 -0 -0 -0 -0 -0 -0 -0 -0 -0 -0 -2 -0 -0 -0 -0 -0 -0 -0 -0 -0 -0 -0 -0 -0 -0 -0 -0 -0 -0 -0 -0 -0 -0 -0 -0 -0 -0 -0
-0 -0 -0 -0 -0 -0 -0 -0 -0 -0 -0 -0 -0 -0 -0 -0 -0 -0 -1 -0 -0 -0 -3 -0 -0 -0 -0 -0 -0 -0 -0 -0 -0 -0 -0 -0 -0 -0 -0 -0 -0 -0 -0 -0 -0
-0 -0 -0 -0 -0 -0 -0 -0 -0 -0 -0 -0 -0 -0 -0 -0 -0 -0 -0 -0 -0 -3 -0 -0 -0 -0 -0 -0 -0 -0 -0 -0 -0 -0 -0 -0 -0 -0 -0 -0 -0 -0 -0 -0 -0
-0 -0 -0 -0 -0 -0 -0 -0 -0 -0 -0 -0 -0 -0 -0 -0 -0 -0 -0 -0 -0 -0 -0 -0 -0 -0 -0 -0 -0 -0 -0 -0 -0 -0 -0 -0 -0 -0 -0 -0 -0 -0 -0 -0 -0
-0 -0 -0 -0 -0 -0 -0 -0 -0 -0 -0 -0 -0 -0 -0 -0 -0 -0 -0 -0 -0 -0 -0 -0 -0 -0 -0 -0 -0 -0 -0 -0 -0 -0 -0 -0 -0 -0 -0 -0 -0 -0 -0 -0 -0
Wind_Speed
5 7 7 7 9 9 8 8 9 8 9 11 7 8 9 10 8 5 4 2 2 5 4 3 4 8 3 2 1 1 3 4 2 1 4 4 2 2 1 5 3 2 1 2 19
5 5 6 6 6 8 9 7 8 9 8 10 12 8 10 10 2 3 3 1 2 4 4 2 8 9 10 3 3 4 3 2 2 2 2 3 3 1 4 5 5 5 5 14 18
4 4 5 6 6 6 7 9 8 8 8 9 11 8 9 6 3 2 5 3 4 4 1 2 6 5 15 6 5 3 4 2 3 1 3 5 1 1 3 5 4 6 12 15 19
6 4 5 4 6 5 5 6 8 9 8 9 10 10 8 2 5 2 7 4 3 4 6 3 4 7 10 13 8 8 4 3 4 1 1 3 5 2 6 2 3 4 15 18 18
8 6 4 7 5 5 6 5 6 8 9 8 9 10 3 3 1 4 5 5 3 3 5 6 5 8 16 7 8 13 11 6 4 2 1 3 3 4 7 5 3 8 14 16 17
5 3 6 7 6 7 5 6 5 7 7 8 8 8 3 4 1 3 5 3 2 2 2 4 3 1 3 4 12 10 16 9 5 3 0 3 3 3 3 3 4 9 12 14 16
7 4 6 6 7 7 6 5 6 6 7 6 7 3 2 1 3 4 2 1 2 0 2 1 1 2 7 5 1 2 13 9 9 5 4 3 7 5 3 3 4 7 9 11 14
6 4 6 4 7 7 7 5 6 6 7 5 6 3 4 1 3 2 1 1 1 2 1 2 1 5 1 6 4 3 6 16 11 7 6 6 10 4 2 3 6 6 7 9 12
7 5 5 5 6 7 7 4 6 7 5 4 2 3 3 3 1 1 2 1 2 1 3 2 2 3 3 7 4 3 4 16 19 7 4 11 13 3 2 4 7 7 7 8 9
9 7 6 4 4 5 3 4 3 4 1 2 0 3 3 2 0 0 1 0 1 4 4 3 2 4 4 8 7 5 4 11 21 10 6 12 16 6 3 4 7 7 6 7 8
9 6 7 4 5 4 1 1 3 3 3 2 2 2 2 2 1 1 0 1 1 2 6 3 3 6 9 13 2 6 7 3 0 2 5 15 15 13 6 5 6 7 7 8 8
10 7 7 5 7 4 2 2 1 3 3 4 2 4 3 2 2 1 3 7 5 6 4 2 5 2 5 5 4 1 5 7 3 4 6 7 15 10 6 6 7 5 7 8 10
9 7 6 8 8 3 2 2 3 1 2 1 3 3 1 3 2 4 9 5 4 8 7 9 0 9 3 5 7 5 6 4 4 3 1 1 8 10 11 7 1 2 1 7 11
9 7 9 12 4 3 3 1 0 1 1 3 2 2 4 3 4 0 5 5 4 12 7 8 8 6 8 11 5 3 4 5 9 6 5 7 4 14 18 10 5 2 5 7 11
8 11 11 4 6 3 2 1 3 2 3 2 3 2 2 4 4 2 1 7 10 9 7 6 6 9 8 10 11 2 4 5 5 6 1 5 4 4 9 14 9 7 7 9 10
10 11 13 4 1 1 2 2 1 3 4 1 3 3 7 6 1 5 3 3 2 4 3 5 1 5 8 5 13 12 8 6 4 2 6 9 8 3 7 15 10 9 10 11 13
14 12 4 2 1 2 1 1 2 4 2 3 1 4 8 7 5 3 7 9 4 5 6 6 4 2 1 8 6 5 9 3 3 4 5 0 10 8 3 5 14 16 15 14 16
14 9 5 3 4 2 0 2 3 1 4 2 1 2 7 5 4 5 7 8 5 6 4 8 5 10 6 4 6 10 5 4 6 5 4 2 8 2 4 5 13 14 16 17 17
10 3 3 5 6 2 3 4 3 4 3 3 3 4 5 3 1 4 5 4 6 6 4 5 3 0 3 1 2 7 6 2 5 2 2 5 2 4 8 13 16 17 18 17 15
3 3 3 7 4 3 1 0 2 3 2 1 4 2 8 8 7 6 8 3 7 10 1 3 4 2 3 1 3 4 13 3 2 6 6 5 5 5 13 17 18 19 18 15 12
3 2 2 4 2 2 0 1 2 4 4 4 3 3 3 5 6 4 5 1 5 8 8 3 2 4 1 5 6 5 5 3 2 2 3 2 3 3 14 18 21 19 15 11 11
2 2 3 1 1 1 1 2 3 2 3 1 2 2 3 3 6 5 7 2 5 10 9 3 1 3 3 1 2 1 2 4 6 5 2 2 2 2 6 15 18 16 13 12 11
2 2 2 1 3 2 1 2 2 0 1 1 1 1 2 2 4 4 5 2 3 5 9 8 4 4 3 1 1 3 2 4 2 1 6 5 2 4 5 15 16 18 15 12 12
2 2 2 3 2 3 4 3 3 3 2 2 1 2 3 4 1 2 6 3 1 5 5 4 2 3 1 4 5 5 5 6 3 3 4 5 2 4 8 16 17 17 16 13 12
3 1 2 2 2 3 2 3 1 3 1 1 2 1 4 3 3 4 2 4 1 4 7 5 4 2 1 1 2 4 9 10 7 6 8 1 7 10 16 16 16 16 16 16 15
3 4 2 3 2 3 1 3 3 2 2 1 1 4 5 2 2 4 2 4 3 3 4 4 4 2 0 1 3 3 6 14 14 8 7 7 7 4 14 14 17 18 18 17 16
2 1 1 1 1 1 1 3 1 3 2 2 2 1 6 4 5 5 3 2 1 3 3 5 6 4 4 1 3 5 17 16 12 12 12 12 4 15 16 19 21 21 20 19 18
Wind_Direction
343 1 348 347 354 359 344 350 347 355 360 355 350 350 342 345 313 176 215 88 292 302 306 334 236 207 146 160 117 213 255 157 95 84 88 23 288 120 115 147 170 106 68 67 139
324 330 349 329 344 352 356 348 355 355 350 350 339 338 335 347 287 221 34 338 240 303 302 195 187 185 203 147 147 230 267 137 52 40 34 359 312 244 210 167 183 161 81 130 145
275 293 313 337 326 340 350 355 355 351 348 344 343 323 333 342 289 110 332 272 229 189 116 285 255 191 199 186 171 152 241 159 136 41 337 342 64 274 238 207 217 207 155 159 157
258 266 290 299 312 315 336 349 348 345 342 341 347 336 330 274 212 2 335 299 228 187 170 129 207 170 189 192 178 220 241 216 145 168 328 331 320 244 251 37 6 239 160 165 170
247 247 255 288 290 289 310 335 341 342 333 333 341 340 312 208 257 317 344 301 254 199 175 160 183 190 207 184 208 222 208 208 159 161 283 304 303 310 256 270 28 142 158 176 179
248 263 244 265 269 280 291 326 333 328 329 327 334 330 283 206 359 302 336 290 346 215 162 162 178 336 123 114 205 216 219 205 186 173 217 284 316 289 58 312 140 160 173 180 186
252 266 230 256 257 269 270 311 324 318 321 320 325 316 262 212 348 316 21 310 291 179 161 164 80 197 134 138 49 222 211 198 208 207 238 270 261 245 10 289 226 188 182 185 191
234 254 221 255 264 257 258 294 317 307 304 309 318 252 243 23 324 277 359 248 333 40 77 80 183 93 74 122 75 155 205 219 195 200 212 223 252 257 353 237 239 213 196 192 191
220 224 215 237 268 248 254 296 305 296 284 311 245 247 221 337 217 95 320 250 120 31 92 114 225 123 164 170 107 162 221 212 214 191 222 216 253 207 320 243 246 227 214 195 188
186 200 223 241 263 229 238 287 296 314 188 155 81 223 226 162 178 37 301 301 133 134 127 166 102 161 193 195 195 164 191 204 207 182 217 223 249 223 249 247 249 233 212 203 199
168 193 211 217 187 197 205 247 190 181 227 258 208 286 55 118 258 153 11 156 114 186 174 173 193 199 186 199 73 170 154 142 199 90 212 217 233 234 210 262 242 226 209 199 195
161 178 189 178 170 136 133 248 14 18 224 240 291 263 277 295 149 211 183 190 194 177 154 153 209 153 132 156 148 134 153 164 136 153 222 207 236 243 211 246 265 266 199 185 158
152 170 176 156 150 148 193 243 43 223 255 179 245 253 209 213 193 171 184 177 204 176 197 216 221 190 156 105 206 196 192 182 105 114 36 176 260 242 239 191 190 47 89 178 167
154 169 149 137 142 169 222 49 330 287 34 181 210 236 209 211 201 86 204 196 198 204 184 224 226 175 199 206 191 222 221 153 138 163 232 198 264 209 224 209 163 137 129 133 127
146 140 145 150 130 201 21 348 132 234 239 109 180 352 169 205 121 146 343 189 195 175 186 172 191 191 212 213 190 151 153 148 175 152 80 198 260 223 213 217 201 149 130 113 109
136 137 124 110 164 52 4 97 217 198 249 205 169 194 180 205 140 137 149 104 333 174 181 178 20 216 206 177 192 142 99 61 53 138 233 195 205 221 192 218 172 139 127 122 114
118 114 81 77 127 1 136 169 194 218 24 166 177 176 199 184 213 229 166 184 173 150 162 174 151 140 255 172 152 155 135 137 189 228 234 52 201 244 219 208 182 153 140 132 121
107 96 62 48 316 300 233 108 261 62 247 345 254 291 203 176 215 208 173 192 201 191 130 180 179 186 150 248 180 181 204 207 211 191 149 105 225 166 336 128 138 138 132 128 120
114 55 64 3 334 16 49 195 241 192 186 200 164 155 208 174 221 185 209 216 192 197 207 163 149 112 66 4 197 161 206 356 98 25 185 193 230 175 132 131 137 136 138 128 122
82 94 55 334 319 43 162 124 224 208 151 184 229 246 189 171 191 199 173 175 178 191 216 132 141 18 85 10 33 248 141 131 172 185 221 191 248 217 178 160 154 151 146 136 128
66 87 45 357 13 82 237 92 246 223 203 216 175 217 244 205 182 203 178 148 190 151 160 149 301 123 142 197 179 146 184 63 107 242 244 191 202 17 185 171 164 158 150 136 132
114 85 24 312 330 31 138 251 321 48 26 240 271 234 247 200 176 195 199 256 216 159 164 114 74 174 198 20 5 25 207 189 222 184 259 350 254 325 220 179 166 153 144 139 136
93 102 69 118 256 175 239 236 259 179 101 323 238 246 184 258 223 169 181 117 252 138 163 157 183 143 129 204 32 207 195 185 187 64 193 191 160 0 183 171 163 151 152 146 146
143 133 21 64 4 158 169 200 221 198 149 150 307 269 227 215 227 178 159 162 224 203 132 141 132 265 237 86 123 181 165 192 164 201 185 238 158 174 168 166 160 158 155 150 151
15 114 328 148 194 144 156 128 204 207 331 10 174 7 254 194 164 190 132 144 199 181 152 169 150 139 55 98 146 166 167 185 208 225 217 256 221 193 185 176 169 159 155 153 161
151 152 169 111 259 202 35 173 201 204 257 145 84 359 181 220 323 194 175 179 193 181 146 190 136 132 170 255 208 213 216 205 210 220 251 255 243 211 162 161 165 166 165 166 163
127 63 189 122 190 224 176 146 213 167 81 8 91 43 70 34 20 6 324 27 42 145 131 146 141 162 186 335 127 283 220 206 205 208 203 204 194 155 166 177 177 170 174 172 164